User: anonymous   Login
Location: Ferintosh
(52.7647°N, 112.9692°W)
Time: 03:38:04
(UTC+00:00)
Language:

Vanguard 3 - Orbit

View from above orbital plane
View from above orbital plane
View from above satellite
View from above satellite

Ground track
Ground track

The orbit data is extracted from the following two-line orbital elements,

1 00020U 59007A   24144.22430585  .00004325  00000-0  17627-2 0  9996
2 00020  33.3463  99.4666 1650982 334.4533  18.2694 11.58724471396875
Epoch (UTC): 23 May 2024 05:23:00
Eccentricity: 0.1650982
inclination: 33.3463°
perigee height: 509 km
apogee height: 3233 km
right ascension of ascending node: 99.4666°
argument of perigee: 334.4533°
revolutions per day: 11.58724471
mean anomaly at epoch: 18.2694°
orbit number at epoch: 39687

The dashed part of the orbit path shows where the satellite is in the earth's shadow,  

DLR